Flag for U.S.A. Weather past 2 weeks in St. Croix Falls, Wisconsin, U.S.A.

23 °F


Feels Like: 18 °F
Forecast: 13 / 25 °F
Wind: 3 mph from West

Location: L O Simenstad Municipal Airport

Current Time: Nov 27, 2015 at 5:21:50 PM

Latest Report: Nov 27, 2015 at 4:35 PM

Visibility: 10 mi

Pressure: 30.60 "Hg

Humidity: 70%

Dew point: 15 °F

Location of St. Croix FallsLocation

Historic Weather in St. Croix Falls — Graph


St. Croix Falls temperature yesterday

Maximum temperature yesterday: 39 °F (at 12:15 AM)
Minimum temperature yesterday: 25 °F (at 11:55 PM)
Average temperature yesterday: 32 °F

Past Weeks' High & Low Weather Summary

High60 °F (Nov 15, 2:35 PM)100% (Nov 13, 9:35 PM)30.65 "Hg (Nov 13, 9:35 PM)
Low16 °F (Nov 21, 7:15 AM)47% (Nov 13, 3:55 PM)29.11 "Hg (Nov 18, 12:35 PM)
Average36 °F79%29.99 "Hg
* Reported Nov 12 4:15 PM — Nov 27 4:15 PM, St. Croix Falls, Weather by CustomWeather, © 2015

Note: Actual official high and low records may vary slightly from our data, if they occured in-between our weather recording intervals... More about our weather records


St. Croix Falls weather history for previous 24 hours

Time TempWeatherWind HumidityBarometerVisibility
4:15 PM
Fri, Nov 27
24 °FSunny.3 mph63%30.59 "Hg10 mi
3:55 PM25 °FSunny.5 mph63%30.59 "Hg10 mi
3:15 PM26 °FSunny.3 mph60%30.59 "Hg10 mi
2:55 PM26 °FSunny.No wind60%30.59 "Hg10 mi
2:35 PM26 °FSunny.No wind61%30.59 "Hg10 mi
2:15 PM26 °FSunny.6 mph61%30.60 "Hg10 mi
1:55 PM26 °FSunny.No wind62%30.62 "Hg10 mi
1:35 PM25 °FSunny.6 mph62%30.61 "Hg10 mi
1:15 PM25 °FSunny.5 mph63%30.61 "Hg10 mi
12:55 PM24 °FSunny.6 mph63%30.63 "Hg10 mi
12:35 PM24 °FSunny.7 mph66%30.63 "Hg10 mi
12:15 PM23 °FSunny.5 mph68%30.63 "Hg10 mi
11:55 AM22 °FSunny.7 mph69%30.63 "Hg10 mi
11:35 AM22 °FSunny.5 mph71%30.63 "Hg10 mi
11:15 AM21 °FSunny.7 mph73%30.64 "Hg10 mi
10:55 AM20 °FScattered clouds.3 mph75%30.64 "Hg10 mi
10:35 AM19 °FPartly sunny.5 mph78%30.65 "Hg10 mi
10:15 AM19 °FOvercast.7 mph76%30.64 "Hg10 mi
9:55 AM19 °FOvercast.7 mph79%30.65 "Hg10 mi
9:35 AM19 °FOvercast.8 mph80%30.64 "Hg10 mi
9:15 AM19 °FOvercast.9 mph79%30.64 "Hg10 mi
8:55 AM19 °FOvercast.9 mph78%30.64 "Hg10 mi
8:35 AM19 °FOvercast.8 mph78%30.63 "Hg10 mi
8:15 AM19 °FOvercast.8 mph78%30.63 "Hg10 mi
7:55 AM20 °FOvercast.9 mph79%30.63 "Hg10 mi
7:35 AM20 °FOvercast.9 mph78%30.62 "Hg10 mi
7:15 AM21 °FOvercast.9 mph77%30.61 "Hg10 mi
6:55 AM21 °FOvercast.6 mph79%30.61 "Hg10 mi
6:35 AM21 °FOvercast.12 mph77%30.59 "Hg10 mi
6:15 AM21 °FOvercast.12 mph78%30.59 "Hg10 mi
5:55 AM21 °FOvercast.7 mph79%30.59 "Hg10 mi
5:35 AM21 °FOvercast.6 mph79%30.59 "Hg10 mi
5:15 AM21 °FOvercast.7 mph78%30.58 "Hg10 mi
4:55 AM21 °FOvercast.8 mph78%30.57 "Hg10 mi
4:35 AM21 °FOvercast.8 mph77%30.56 "Hg10 mi
4:15 AM21 °FOvercast.8 mph77%30.55 "Hg10 mi
3:55 AM21 °FOvercast.8 mph77%30.55 "Hg10 mi
3:35 AM21 °FOvercast.13 mph77%30.54 "Hg10 mi
3:15 AM22 °FOvercast.10 mph77%30.54 "Hg10 mi
2:55 AM23 °FOvercast.8 mph78%30.54 "Hg10 mi
2:35 AM23 °FOvercast.12 mph77%30.53 "Hg10 mi
2:15 AM23 °FOvercast.10 mph76%30.53 "Hg10 mi
1:55 AM24 °FOvercast.10 mph76%30.52 "Hg10 mi
1:15 AM24 °FOvercast.14 mph75%30.51 "Hg10 mi
12:55 AM25 °FOvercast.9 mph76%30.51 "Hg10 mi
12:35 AM25 °FOvercast.9 mph76%30.50 "Hg10 mi
12:15 AM25 °FOvercast.9 mph76%30.50 "Hg10 mi
11:55 PM
Thu, Nov 26
25 °FOvercast.9 mph77%30.50 "Hg10 mi
11:15 PM25 °FOvercast.9 mph77%30.48 "Hg10 mi
10:55 PM25 °FOvercast.10 mph77%30.48 "Hg10 mi
9:55 PM26 °FOvercast.15 mph77%30.46 "Hg10 mi
9:15 PM27 °FOvercast.8 mph78%30.45 "Hg10 mi
8:55 PM27 °FOvercast.10 mph77%30.43 "Hg10 mi
8:35 PM27 °FOvercast.14 mph78%30.43 "Hg10 mi
8:15 PM27 °FOvercast.7 mph80%30.42 "Hg10 mi
7:55 PM27 °FOvercast.8 mph79%30.41 "Hg10 mi
7:35 PM27 °FPassing clouds.9 mph79%30.41 "Hg10 mi
7:15 PM28 °FPassing clouds.7 mph79%30.40 "Hg10 mi
6:55 PM28 °FPassing clouds.8 mph78%30.39 "Hg10 mi
6:15 PM28 °FOvercast.13 mph79%30.39 "Hg10 mi
5:55 PM29 °FPassing clouds.12 mph79%30.39 "Hg10 mi
5:35 PM30 °FOvercast.8 mph76%30.38 "Hg10 mi
5:15 PM30 °FMostly cloudy.14 mph78%30.36 "Hg10 mi
Weather by CustomWeather, © 2015

See weather overviewHow to use our weather pages